Location: Indian Hills
(32.9760°N, 85.9450°W)
Time: 17:28:30
(UTC+00:00)

X-37B - Visible Passes

Search period start: 05 March 2021 00:00
Search period end: 15 March 2021 00:00
Orbit: 383 x 391 km, 45.0° (Epoch: 27 February)

Date Brightness Start Highest point End Pass type
(mag) Time Alt. Az. Time Alt. Az. Time Alt. Az.
05 Mar 3.7 09:57:40 13° ESE 09:57:40 13° ESE 09:58:05 10° ESE visible
05 Mar 2.8 11:30:04 10° WSW 11:31:14 12° SW 11:32:24 10° SSW visible
06 Mar 3.0 10:35:00 14° S 10:35:00 14° S 10:35:42 10° SSE visible
09 Mar 2.0 01:06:09 10° SSW 01:08:11 26° S 01:08:11 26° S visible
10 Mar 2.6 00:08:56 10° S 00:10:49 15° SE 00:12:42 10° E visible
10 Mar 2.9 01:44:03 10° WSW 01:45:36 25° W 01:45:36 25° W visible
11 Mar 0.5 00:45:38 10° SW 00:48:49 71° SE 00:50:31 25° ENE visible
12 Mar 2.3 01:24:19 10° W 01:27:09 28° NNW 01:27:38 27° N visible
13 Mar 1.3 00:25:34 10° WSW 00:28:42 52° NNW 00:31:51 10° NE visible
13 Mar 3.9 02:04:11 10° NW 02:04:37 11° NW 02:04:37 11° NW visible
14 Mar 3.0 01:04:53 10° WNW 01:07:13 18° NNW 01:09:11 12° NNE visible
